Location: Arleux
(50.3632°N, 2.8721°E)
Time: 16:37:43
(UTC+00:00)

USA 234 - Pass Details

Date: 15 December 2019
Orbit: 1099 x 1108 km, 123.0° (Epoch: 20 January)

Event Time Altitude Azimuth Distance (km) Brightness Sun altitude
Rises 04:35:59 0° 57° (ENE) 3,924 6.9 -28.3°
Reaches altitude 10° 04:38:34 10° 62° (ENE) 2,965 6.2 -27.9°
Maximum altitude 04:44:56 53° 138° (SE) 1,338 3.9 -26.9°
Enters shadow 04:49:31 20° 208° (SSW) 2,328 4.7 -26.1°
